Fontana Observed Data For Previous 48 Hours

Caption
Day and Hour Reservoir Elevation (behind dam)* Tailwater Elevation (below dam)* Average Hourly Discharge*
4/21/2018 2 AM EDT 1,684.17 1,274.25 0
4/21/2018 3 AM EDT 1,684.20 1,274.06 0
4/21/2018 4 AM EDT 1,684.23 1,273.86 0
4/21/2018 5 AM EDT 1,684.26 1,273.66 0
4/21/2018 6 AM EDT 1,684.29 1,273.46 0
4/21/2018 7 AM EDT 1,684.31 1,275.18 139
4/21/2018 8 AM EDT 1,684.32 1,277.50 2,822
4/21/2018 9 AM EDT 1,684.32 1,279.05 5,494
4/21/2018 10 AM EDT 1,684.29 1,279.20 5,636
4/21/2018 11 AM EDT 1,684.27 1,278.89 5,548
4/21/2018 12 PM EDT 1,684.32 1,276.52 115
4/21/2018 1 PM EDT 1,684.35 1,276.12 0
4/21/2018 2 PM EDT 1,684.38 1,275.92 0
4/21/2018 3 PM EDT 1,684.42 1,275.92 0
4/21/2018 4 PM EDT 1,684.45 1,275.97 0
4/21/2018 5 PM EDT 1,684.49 1,275.99 0
4/21/2018 6 PM EDT 1,684.52 1,276.02 0
4/21/2018 7 PM EDT 1,684.55 1,276.08 0
4/21/2018 8 PM EDT 1,684.60 1,275.87 0
4/21/2018 9 PM EDT 1,684.64 1,275.66 0
4/21/2018 10 PM EDT 1,684.66 1,275.51 0
4/21/2018 11 PM EDT 1,684.69 1,275.34 0
4/22/2018 12 AM EDT 1,684.73 1,275.15 0
4/22/2018 1 AM EDT 1,684.76 1,275.00 0
4/22/2018 2 AM EDT 1,684.79 1,275.03 0
4/22/2018 3 AM EDT 1,684.81 1,275.05 0
4/22/2018 4 AM EDT 1,684.85 1,275.06 0
4/22/2018 5 AM EDT 1,684.88 1,275.08 0
4/22/2018 6 AM EDT 1,684.91 1,274.81 0
4/22/2018 7 AM EDT 1,684.93 1,274.64 0
4/22/2018 8 AM EDT 1,684.96 1,274.43 0
4/22/2018 9 AM EDT 1,685.00 1,274.22 0
4/22/2018 10 AM EDT 1,685.02 1,274.05 0
4/22/2018 11 AM EDT 1,685.07 1,273.87 51
4/22/2018 12 PM EDT 1,685.12 1,273.60 31
4/22/2018 1 PM EDT 1,685.14 1,273.41 0
4/22/2018 2 PM EDT 1,685.16 1,273.21 0
4/22/2018 3 PM EDT 1,685.21 1,273.03 0
4/22/2018 4 PM EDT 1,685.24 1,272.88 0
4/22/2018 5 PM EDT 1,685.28 1,272.75 0
4/22/2018 6 PM EDT 1,685.32 1,272.67 0
4/22/2018 7 PM EDT 1,685.33 1,275.30 199
4/22/2018 8 PM EDT 1,685.36 1,279.14 5,680
4/22/2018 9 PM EDT 1,685.35 1,279.72 6,151
4/22/2018 10 PM EDT 1,685.30 1,278.76 5,915
4/22/2018 11 PM EDT 1,685.33 1,276.87 2,802
4/23/2018 12 AM EDT 1,685.37 1,273.81 70
4/23/2018 1 AM EDT 1,685.38 1,273.48 0
4/23/2018 2 AM EDT 1,685.43 1,273.23 0
4/23/2018 3 AM EDT 1,685.45 1,273.03 0
4/23/2018 4 AM EDT 1,685.50 1,272.88 0
4/23/2018 5 AM EDT 1,685.56 1,272.75 0
4/23/2018 6 AM EDT 1,685.55 1,272.68 0
4/23/2018 7 AM EDT 1,685.63 1,272.64 0
4/23/2018 8 AM EDT 1,685.64 1,272.63 0
4/23/2018 9 AM EDT 1,685.73 1,272.61 0
4/23/2018 10 AM EDT 1,685.78 1,272.63 70
4/23/2018 11 AM EDT 1,685.79 1,272.64 0
4/23/2018 12 PM EDT 1,685.84 1,272.67 0
4/23/2018 1 PM EDT 1,685.89 1,272.71 0
4/23/2018 2 PM EDT 1,685.95 1,272.77 0
4/23/2018 3 PM EDT 1,685.97 1,272.86 0
4/23/2018 4 PM EDT 1,686.04 1,272.93 0
4/23/2018 5 PM EDT 1,686.11 1,273.00 0
4/23/2018 6 PM EDT 1,686.15 1,275.11 138
4/23/2018 7 PM EDT 1,686.17 1,277.55 2,871
4/23/2018 8 PM EDT 1,686.20 1,279.09 5,579

Elevations are in feet above sea level. Discharges are in cubic feet per second and are reported at the end of the hour.